Weather History for Sisseton, SD

Change the Weather History Date:

Saturday, May 19, 2012

  Actual Average Record
Temperature  
Mean Temperature 66 °F 58 °F  
Max Temperature 78 °F 71 °F 98 °F (1934)
Min Temperature 54 °F 46 °F 32 °F (2002)
Degree Days  
Heating Degree Days 0 7  
Month to date heating degree days 97 192  
Since 1 July heating degree days 6536 8151  
Cooling Degree Days 1 1  
Month to date cooling degree days 37 10  
Year to date cooling degree days 44 11  
Growing Degree Days 16 (Base 50)    
Moisture  
Dew Point 49 °F    
Average Humidity 56    
Maximum Humidity 72    
Minimum Humidity 39    
Precipitation  
Precipitation 0.00 in 0.09 in 0.78 in (1990)
Month to date precipitation 0.71 1.68  
Year to date precipitation 7.52 5.94  
Sea Level Pressure  
Sea Level Pressure 29.71 in    
Wind  
Wind Speed 19 mph (NNW)    
Max Wind Speed 38 mph    
Max Gust Speed 48 mph    
T = Trace of Precipitation, MM = Missing Value Source: NWS Daily Summary

Daily Weather History Graph

Daily Weather History Graph

Search for Another Location

Airport:

Trip Planner

Search our weather history database for the weather conditions in past years. The results will help you decide how hot, cold, wet, or windy it might be!

Date:

Astronomy

May. 19, 2012 Rise Set
Actual Time 5:51 AM CDT 8:57 PM CDT
Civil Twilight 5:16 AM CDT 9:33 PM CDT
Nautical Twilight 4:30 AM CDT 10:19 PM CDT
Astronomical Twilight 3:35 AM CDT 11:14 PM CDT
Moon 4:58 AM CDT (5/19) 8:02 PM CDT (5/19)
Length of Visible Light 16h 16m
Length of Day
15h 05m
Waning Crescent, 1% of the Moon is Illuminated
May 19
Waning Crescent
May 20
New
May 28
First Quarter
Jun 4
Full
Jun 11
Last Quarter

Hourly Weather History & Observations

Time (CDT) Temp. Dew Point Humidity Pressure Visibility Wind Dir Wind Speed Gust Speed Precip Events Conditions
12:56 AM 78.1 °F 51.1 °F 39% 29.49 in - South 21.9 mph 29.9 mph N/A   Unknown
1:56 AM 77.0 °F 52.0 °F 42% 29.49 in - South 20.7 mph - N/A   Unknown
2:56 AM 77.0 °F 52.0 °F 42% 29.47 in - SSW 23.0 mph 29.9 mph N/A   Unknown
3:56 AM 75.9 °F 52.0 °F 43% 29.45 in - SW 29.9 mph 40.3 mph N/A   Unknown
4:56 AM 73.9 °F 53.1 °F 48% 29.46 in - WSW 28.8 mph 42.6 mph N/A   Unknown
5:56 AM 72.0 °F 54.0 °F 53% 29.47 in - WSW 28.8 mph 48.3 mph N/A   Unknown
6:40 AM 64.4 °F 51.8 °F 64% 29.55 in - NNW 21.9 mph 31.1 mph N/A   Unknown
6:56 AM 60.1 °F 48.9 °F 67% 29.58 in - NW 15.0 mph 25.3 mph N/A   Unknown
7:56 AM 59.0 °F 50.0 °F 72% 29.62 in - NNW 13.8 mph 18.4 mph N/A   Unknown
8:56 AM 60.1 °F 50.0 °F 69% 29.66 in - North 12.7 mph - N/A   Unknown
9:56 AM 61.0 °F 50.0 °F 67% 29.69 in - North 12.7 mph 20.7 mph N/A   Unknown
10:56 AM 63.0 °F 51.1 °F 65% 29.70 in - NNW 19.6 mph - N/A   Unknown
11:56 AM 64.0 °F 51.1 °F 63% 29.73 in - NNW 17.3 mph 24.2 mph N/A   Unknown
12:56 PM 62.1 °F 50.0 °F 65% 29.76 in - North 18.4 mph - N/A   Unknown
1:56 PM 63.0 °F 50.0 °F 63% 29.79 in - North 16.1 mph 28.8 mph N/A   Unknown
2:56 PM 64.0 °F 48.9 °F 58% 29.82 in - North 19.6 mph - N/A   Unknown
3:56 PM 64.9 °F 48.0 °F 54% 29.83 in - North 19.6 mph - N/A   Unknown
4:56 PM 66.9 °F 48.0 °F 51% 29.85 in - North 17.3 mph 26.5 mph N/A   Unknown
5:56 PM 66.0 °F 48.0 °F 52% 29.86 in - North 20.7 mph 27.6 mph N/A   Unknown
6:56 PM 63.0 °F 46.9 °F 56% 29.89 in - North 24.2 mph 27.6 mph N/A   Unknown
7:56 PM 61.0 °F 46.0 °F 58% 29.92 in - North 24.2 mph - N/A   Unknown
8:56 PM 60.1 °F 46.0 °F 60% 29.91 in - North 17.3 mph 28.8 mph N/A   Unknown
9:56 PM 57.9 °F 46.0 °F 65% 29.92 in - NNE 12.7 mph - N/A   Unknown
10:56 PM 55.9 °F 46.0 °F 69% 29.94 in - NNE 18.4 mph - N/A   Unknown
11:56 PM 55.0 °F 46.0 °F 72% 29.94 in - NNE 18.4 mph - N/A   Unknown